CAPE
9 6 8 11 60 201 456 669 847 968 1069 1128 1166 1203 1153 1176 1390 1586 1725 1609 1166 917 939 1105 1003 917 778 764 787 738 816 758 734 697 629 589 573 499 541 565 655 495
10 8 12 15 18 42 110 211 423 728 981 1112 1146 1126 1193 1205 1299 1400 1554 1696 1445 1200 836 751 758 745 660 662 741 566 748 837 728 608 613 642 529 472 393 527 625 634
6 9 5 6 12 18 21 22 89 350 765 1134 1152 1118 1114 951 1050 1299 1357 1411 1546 1342 994 706 665 623 776 696 634 558 671 853 729 711 776 759 668 588 468 578 521 504
6 4 7 8 7 5 5 8 10 23 66 134 428 589 769 918 1130 1119 1229 1344 1442 1510 1233 898 733 738 740 699 666 674 786 833 831 724 678 598 678 657 587 504 485 429
6 2 3 5 7 3 2 2 2 1 0 0 27 417 603 718 807 835 1029 1145 1204 1290 1190 1014 1106 970 904 912 757 616 565 632 637 612 638 727 622 509 442 420 474 415
8 7 7 4 1 4 4 5 4 3 2 1 2 3 53 487 659 722 740 768 836 1026 992 811 726 642 623 462 500 608 690 605 656 573 547 657 610 495 404 368 415 408
6 5 1 0 5 7 7 6 5 6 8 9 9 11 8 6 188 532 622 696 659 692 662 655 643 611 516 488 607 424 434 557 583 534 471 428 464 377 310 312 359 328
6 5 2 7 3 3 7 5 6 8 8 6 4 4 7 9 8 36 300 517 490 610 652 670 695 590 477 433 388 336 510 516 553 530 412 383 395 399 449 390 346 309
6 4 3 2 0 3 2 3 4 6 7 6 4 6 5 3 3 4 6 295 359 400 839 616 555 632 577 493 400 305 291 343 456 551 498 407 456 481 510 466 327 222
4 3 4 5 2 2 1 2 5 6 6 6 4 6 4 6 4 0 0 0 62 287 336 619 499 507 467 432 313 279 452 571 561 577 608 524 470 364 317 292 224 144
3 4 4 4 2 2 4 2 4 4 5 2 2 2 2 1 1 2 3 3 2 3 206 342 450 459 444 401 356 451 532 523 420 315 473 485 335 282 283 272 222 250
4 4 4 4 4 4 5 4 4 4 4 4 2 1 1 1 0 0 2 5 9 24 74 77 386 417 379 344 382 408 408 341 356 356 384 398 335 238 254 235 365 372
2 3 6 6 6 6 8 6 4 3 2 2 2 1 1 1 1 0 2 4 7 31 29 76 182 274 312 322 280 293 331 340 357 347 365 375 391 323 348 258 250 305
1 3 4 7 8 7 7 8 5 4 4 4 4 2 2 1 1 1 1 2 4 4 29 128 149 179 197 252 1 2 203 359 338 338 396 494 449 280 335 410 360 243
2 2 5 5 6 5 5 6 6 6 6 5 3 3 5 1 1 0 0 1 5 8 10 77 166 202 144 2 1 1 2 2 196 331 452 456 462 520 402 324 200 192
0 0 1 4 4 4 5 7 6 7 8 4 3 4 0 2 1 0 1 2 3 4 8 19 66 109 4 20 242 278 38 244 274 260 168 244 293 363 404 420 431 352
0 2 1 1 4 4 5 4 3 7 8 8 10 6 5 5 2 0 1 0 0 2 3 11 53 122 124 149 147 17 2 201 180 223 276 304 325 324 252 252 371 427
0 0 0 1 2 2 3 5 6 5 4 5 10 12 8 2 1 0 0 0 1 0 4 12 16 45 125 173 194 202 193 203 162 130 42 295 314 275 251 180 388 373
0 0 1 1 0 1 3 6 7 5 5 6 8 10 12 12 8 3 0 1 2 1 0 2 9 5 41 86 214 214 195 178 225 202 215 293 344 302 210 284 304 348
0 0 0 1 0 0 2 3 4 8 10 11 10 8 6 4 1 14 4 1 2 0 2 4 3 0 1 19 104 187 186 188 160 155 93 131 250 289 267 218 324 353
0 0 2 0 0 1 2 0 4 7 10 10 9 10 9 9 4 6 10 14 9 7 5 6 4 0 0 0 0 0 25 154 65 144 61 94 10 10 216 59 186 187
0 0 0 1 0 0 0 1 3 2 4 8 3 9 8 10 11 10 6 5 7 19 12 7 6 2 0 0 0 0 0 0 19 165 156 6 8 18 15 100 264 249
0 0 0 0 1 1 0 0 3 2 3 6 3 1 6 0 12 10 7 4 2 5 5 5 4 1 0 0 0 0 0 0 54 25 10 10 7 10 11 65 234 306
0 1 0 0 1 2 0 0 0 3 2 7 6 2 2 2 2 2 2 4 1 0 3 1 1 0 0 0 0 0 0 1 4 6 54 84 34 6 4 10 95 238
0 0 0 0 0 2 0 0 0 0 2 0 3 2 2 2 2 3 1 6 1 0 0 0 0 0 0 0 0 0 0 1 3 5 48 137 94 66 34 6 40 131
0 0 0 0 0 0 0 0 0 0 0 3 2 3 2 3 1 5 4 3 1 3 0 0 0 0 0 0 0 0 0 0 2 2 2 7 100 95 62 31 16 79
Wind_Speed
nan nan nan nan nan 23 24 23 24 23 24 24 24 23 24 24 27 31 35 39 39 38 37 37 37 36 34 33 31 26 27 28 27 28 27 26 24 22 22 23 24 25
nan nan nan nan nan nan 24 23 22 22 22 23 23 22 22 23 26 30 34 37 39 40 39 38 38 37 36 35 38 32 28 26 25 28 27 24 23 23 21 22 24 24
nan nan nan nan nan nan nan nan nan 22 21 21 22 23 22 23 25 28 31 33 34 36 37 36 36 37 34 33 32 32 30 27 25 26 25 22 23 23 22 23 25 23
nan nan nan nan nan nan nan nan nan nan nan 22 22 23 23 24 25 24 26 27 29 32 34 35 34 34 32 29 32 31 27 24 25 27 22 22 24 24 24 26 24 21
nan nan nan nan nan nan nan nan nan nan nan nan nan 24 24 24 24 23 24 24 26 28 32 32 33 31 28 27 31 31 26 23 23 26 26 24 25 25 24 25 24 23
nan nan nan nan nan nan nan nan nan nan nan nan nan nan nan 22 23 22 22 23 24 25 28 31 29 25 23 24 26 25 25 25 24 26 26 25 25 26 25 24 23 22
nan nan nan nan nan nan nan nan nan nan nan nan nan nan nan nan 22 21 22 23 22 22 24 27 30 26 23 24 22 19 20 22 24 25 27 24 23 23 24 24 23 24
nan nan nan nan nan nan nan nan nan nan nan nan nan nan nan nan nan nan 23 22 23 22 25 27 27 25 24 22 19 17 16 20 22 25 25 24 23 21 24 25 26 23
nan nan nan nan nan nan nan nan nan nan nan nan nan nan nan nan nan nan nan 21 22 23 24 26 26 25 23 22 19 15 14 15 19 22 24 24 24 24 23 25 25 23
nan nan nan nan nan nan nan nan nan nan nan nan nan nan nan nan nan nan nan nan nan 22 23 23 25 25 23 21 16 15 16 17 20 22 23 24 25 25 24 24 23 24
nan nan nan nan nan nan nan nan nan nan nan nan nan nan nan nan nan nan nan nan nan nan 23 22 24 26 24 22 24 25 21 20 20 18 20 23 24 25 26 25 22 22
nan nan nan nan nan nan nan nan nan nan nan nan nan nan nan nan nan nan nan nan nan nan nan nan 27 27 25 24 24 23 22 20 20 19 16 20 22 24 26 27 24 22
nan nan nan nan nan nan nan nan nan nan nan nan nan nan nan nan nan nan nan nan nan nan nan nan 33 31 28 27 27 26 21 21 23 21 15 20 22 22 25 26 25 23
nan nan nan nan nan nan nan nan nan nan nan nan nan nan nan nan nan nan nan nan nan nan nan 37 34 33 30 27 nan nan 25 24 23 23 19 20 21 20 22 26 26 23
nan nan nan nan nan nan nan nan nan nan nan nan nan nan nan nan nan nan nan nan nan nan nan nan 36 33 31 nan nan nan nan nan 24 23 22 20 19 19 19 21 27 27
nan nan nan nan nan nan nan nan nan nan nan nan nan nan nan nan nan nan nan nan nan nan nan nan nan 34 nan nan 26 27 nan 25 23 24 23 21 19 18 20 24 25 25
nan nan nan nan nan nan nan nan nan nan nan nan nan nan nan nan nan nan nan nan nan nan nan nan nan 34 32 29 27 nan nan 26 23 22 23 22 21 20 20 23 26 24
nan nan nan nan nan nan nan nan nan nan nan nan nan nan nan nan nan nan nan nan nan nan nan nan nan nan 34 32 29 27 25 24 23 21 nan 22 22 19 20 25 26 25
nan nan nan nan nan nan nan nan nan nan nan nan nan nan nan nan nan nan nan nan nan nan nan nan nan nan nan nan 31 29 26 23 24 21 21 22 21 19 18 21 27 30
nan nan nan nan nan nan nan nan nan nan nan nan nan nan nan nan nan nan nan nan nan nan nan nan nan nan nan nan 33 31 28 24 22 21 nan 21 20 19 19 21 22 25
nan nan nan nan nan nan nan nan nan nan nan nan nan nan nan nan nan nan nan nan nan nan nan nan nan nan nan nan nan nan nan 24 nan 22 nan nan nan nan 19 nan 21 22
nan nan nan nan nan nan nan nan nan nan nan nan nan nan nan nan nan nan nan nan nan nan nan nan nan nan nan nan nan nan nan nan nan 23 21 nan nan nan nan nan 23 25
nan nan nan nan nan nan nan nan nan nan nan nan nan nan nan nan nan nan nan nan nan nan nan nan nan nan nan nan nan nan nan nan nan nan nan nan nan nan nan nan 23 26
nan nan nan nan nan nan nan nan nan nan nan nan nan nan nan nan nan nan nan nan nan nan nan nan nan nan nan nan nan nan nan nan nan nan nan nan nan nan nan nan nan 29
nan nan nan nan nan nan nan nan nan nan nan nan nan nan nan nan nan nan nan nan nan nan nan nan nan nan nan nan nan nan nan nan nan nan nan 29 nan nan nan nan nan 34
nan nan nan nan nan nan nan nan nan nan nan nan nan nan nan nan nan nan nan nan nan nan nan nan nan nan nan nan nan nan nan nan nan nan nan nan 35 nan nan nan nan nan
Wind_Direction
nan nan nan nan nan 280 282 285 288 291 294 298 299 300 304 306 308 307 305 304 306 309 311 311 309 306 302 302 298 297 293 284 281 283 285 284 277 281 286 290 289 285
nan nan nan nan nan nan 278 278 281 287 293 296 298 302 307 309 308 305 304 307 307 310 311 311 309 308 307 304 299 299 295 286 285 286 285 283 281 281 285 289 288 284
nan nan nan nan nan nan nan nan nan 283 288 291 295 298 300 302 304 303 304 306 309 310 310 311 309 304 306 307 299 298 297 289 281 277 275 278 277 277 280 279 278 284
nan nan nan nan nan nan nan nan nan nan nan 281 282 285 290 296 297 299 304 305 307 312 312 310 308 305 305 307 301 290 287 281 276 278 281 282 280 277 275 272 274 278
nan nan nan nan nan nan nan nan nan nan nan nan nan 286 291 292 292 292 293 297 303 310 313 310 305 300 298 298 300 301 296 286 280 278 280 283 282 279 273 269 274 279
nan nan nan nan nan nan nan nan nan nan nan nan nan nan nan 291 291 288 286 287 295 304 307 308 298 291 292 292 291 294 291 281 276 279 282 279 277 277 271 271 276 280
nan nan nan nan nan nan nan nan nan nan nan nan nan nan nan nan 288 287 287 288 289 296 301 303 304 303 302 292 288 285 283 280 279 281 282 280 279 281 280 275 276 276
nan nan nan nan nan nan nan nan nan nan nan nan nan nan nan nan nan nan 291 288 291 294 303 306 307 306 299 302 299 284 268 270 273 275 272 276 278 276 277 273 273 273
nan nan nan nan nan nan nan nan nan nan nan nan nan nan nan nan nan nan nan 282 290 296 299 308 312 304 298 299 300 295 283 264 263 272 272 277 279 276 273 271 275 276
nan nan nan nan nan nan nan nan nan nan nan nan nan nan nan nan nan nan nan nan nan 286 294 303 307 308 306 302 296 294 285 265 255 263 270 272 275 272 270 269 269 270
nan nan nan nan nan nan nan nan nan nan nan nan nan nan nan nan nan nan nan nan nan nan 287 291 305 310 312 306 293 287 284 269 257 258 267 267 269 266 262 262 267 268
nan nan nan nan nan nan nan nan nan nan nan nan nan nan nan nan nan nan nan nan nan nan nan nan 281 283 281 279 273 277 292 289 272 261 267 266 258 260 259 255 254 263
nan nan nan nan nan nan nan nan nan nan nan nan nan nan nan nan nan nan nan nan nan nan nan nan 283 286 288 286 282 271 264 283 278 262 263 279 264 252 260 260 256 256
nan nan nan nan nan nan nan nan nan nan nan nan nan nan nan nan nan nan nan nan nan nan nan 283 282 281 278 278 nan nan 270 268 274 266 266 279 263 249 259 261 259 261
nan nan nan nan nan nan nan nan nan nan nan nan nan nan nan nan nan nan nan nan nan nan nan nan 279 280 281 nan nan nan nan nan 266 259 262 262 255 244 248 253 256 254
nan nan nan nan nan nan nan nan nan nan nan nan nan nan nan nan nan nan nan nan nan nan nan nan nan 280 nan nan 261 283 nan 284 275 267 261 266 268 266 258 240 241 252
nan nan nan nan nan nan nan nan nan nan nan nan nan nan nan nan nan nan nan nan nan nan nan nan nan 269 246 251 248 nan nan 289 284 275 268 260 262 263 251 248 240 243
nan nan nan nan nan nan nan nan nan nan nan nan nan nan nan nan nan nan nan nan nan nan nan nan nan nan 247 244 243 243 256 281 293 286 nan 265 267 264 246 236 241 244
nan nan nan nan nan nan nan nan nan nan nan nan nan nan nan nan nan nan nan nan nan nan nan nan nan nan nan nan 239 238 240 257 293 294 286 274 275 273 250 241 248 247
nan nan nan nan nan nan nan nan nan nan nan nan nan nan nan nan nan nan nan nan nan nan nan nan nan nan nan nan 236 232 234 248 287 296 nan 281 277 279 263 246 244 248
nan nan nan nan nan nan nan nan nan nan nan nan nan nan nan nan nan nan nan nan nan nan nan nan nan nan nan nan nan nan nan 246 nan 285 nan nan nan nan 276 nan 254 251
nan nan nan nan nan nan nan nan nan nan nan nan nan nan nan nan nan nan nan nan nan nan nan nan nan nan nan nan nan nan nan nan nan 269 271 nan nan nan nan nan 261 254
nan nan nan nan nan nan nan nan nan nan nan nan nan nan nan nan nan nan nan nan nan nan nan nan nan nan nan nan nan nan nan nan nan nan nan nan nan nan nan nan 270 259
nan nan nan nan nan nan nan nan nan nan nan nan nan nan nan nan nan nan nan nan nan nan nan nan nan nan nan nan nan nan nan nan nan nan nan nan nan nan nan nan nan 249
nan nan nan nan nan nan nan nan nan nan nan nan nan nan nan nan nan nan nan nan nan nan nan nan nan nan nan nan nan nan nan nan nan nan nan 252 nan nan nan nan nan 252
nan nan nan nan nan nan nan nan nan nan nan nan nan nan nan nan nan nan nan nan nan nan nan nan nan nan nan nan nan nan nan nan nan nan nan nan 249 nan nan nan nan nan